Temp
59 59 59 59 58 58 58 58 57 57 58 58 58 58 58 58 57 56 55 66 64 66 68 71 73 72 72 70 69 67 63 58 59 58 61 64 63 65 68 65 67 69 70 68 66
58 58 58 58 57 57 57 57 57 57 57 58 58 58 58 58 52 51 64 65 66 67 70 70 68 70 69 68 68 68 62 62 65 66 63 64 66 65 64 63 63 64 67 68 67
57 57 57 57 56 56 56 56 56 57 57 57 57 58 57 57 52 62 68 65 66 68 71 71 70 70 66 66 66 62 63 63 64 66 68 64 63 65 65 60 65 61 62 65 66
56 56 56 56 56 56 55 55 56 56 56 57 57 58 57 53 53 68 67 66 67 69 70 67 67 64 63 63 66 62 62 64 64 65 64 62 65 63 66 61 69 64 63 64 61
55 55 55 55 55 55 55 55 55 55 55 56 57 57 53 51 55 68 67 68 67 69 68 66 64 63 62 64 64 62 59 60 61 62 62 64 60 58 57 64 67 64 64 61 58
54 55 55 55 55 55 54 54 54 54 54 55 56 57 49 48 67 67 66 67 68 68 66 67 67 67 64 61 63 59 58 59 61 62 60 59 58 61 57 61 60 61 58 58 58
54 54 54 54 54 54 54 53 53 53 54 55 56 55 47 54 66 64 67 67 67 68 64 67 70 67 66 58 61 59 56 60 59 59 57 64 57 53 60 60 57 57 58 58 58
54 54 54 54 53 53 53 53 53 53 54 57 56 52 47 64 64 64 67 67 67 68 69 71 70 67 64 63 60 57 57 53 57 59 58 60 54 53 59 58 54 57 58 58 58
54 54 54 53 53 53 52 52 53 54 56 56 51 49 49 65 60 66 68 66 67 68 69 71 68 62 61 57 53 52 50 48 52 58 57 58 51 55 58 56 55 55 57 59 58
53 53 53 53 53 52 52 52 53 54 55 57 56 47 54 57 62 64 65 68 66 65 64 64 60 57 55 55 46 45 47 47 51 55 57 53 53 54 57 55 54 56 58 58 58
53 53 53 53 52 52 48 50 49 48 49 47 48 48 53 59 63 62 65 66 65 61 55 57 55 51 54 55 55 53 51 51 50 55 55 54 53 53 56 57 55 56 57 57 57
52 52 53 52 52 51 46 46 44 45 38 50 49 49 55 58 52 61 67 60 57 52 53 52 49 56 56 55 54 53 51 49 49 54 56 50 50 53 55 56 57 56 57 58 57
52 52 52 51 51 45 42 45 51 49 38 45 50 50 53 56 52 54 63 59 55 49 51 49 52 55 55 52 51 51 51 46 49 51 51 51 48 49 54 56 57 58 60 60 58
52 52 51 51 44 42 42 48 48 47 34 40 45 51 54 56 51 63 64 62 54 50 49 52 54 52 53 51 54 47 56 53 49 49 44 53 44 47 53 52 53 55 56 57 58
51 51 51 50 43 39 45 47 48 46 20 46 48 61 56 54 56 55 63 61 51 50 51 49 48 49 48 53 55 53 56 53 52 52 48 46 45 50 51 49 52 55 57 58 58
51 51 51 44 41 43 45 46 46 31 17 40 50 48 46 51 54 55 58 62 59 52 52 52 55 55 55 56 58 56 53 52 51 48 39 47 47 46 46 51 56 59 58 57 57
51 50 48 46 40 44 44 44 30 20 40 37 38 45 44 45 49 51 51 50 49 42 43 49 51 56 56 52 56 56 51 39 37 36 37 44 43 50 54 56 60 60 60 57 57
50 48 43 44 44 43 42 38 19 30 33 43 42 41 38 46 47 48 48 46 50 50 45 42 39 51 56 54 50 50 53 41 33 33 38 44 40 50 59 62 62 62 62 57 56
48 39 41 44 42 42 40 26 24 32 39 37 40 37 38 44 45 47 46 47 51 50 44 41 42 53 54 57 57 49 45 55 42 40 39 44 46 55 57 58 58 58 56 54 56
37 34 41 44 44 43 34 29 33 40 41 41 32 37 33 37 39 42 43 50 49 52 54 48 42 51 55 59 57 55 56 44 43 31 32 38 42 47 49 54 54 54 54 55 56
34 35 45 45 44 39 26 30 36 43 42 37 35 34 37 36 37 39 43 49 53 50 55 51 46 45 52 51 50 49 48 45 46 43 39 35 42 53 56 57 54 55 57 55 55
32 28 45 44 34 32 28 31 37 39 43 40 41 39 37 37 36 38 39 46 50 54 48 52 46 40 46 55 58 56 51 51 39 34 39 41 42 54 54 55 57 57 56 56 57
29 28 41 42 23 24 31 32 35 33 36 37 36 41 42 37 33 39 41 48 48 49 49 49 42 37 40 48 50 51 49 53 46 44 36 36 41 52 53 53 55 55 55 54 55
29 22 29 32 33 27 27 29 30 39 35 36 34 39 36 36 41 36 39 46 47 48 49 52 43 43 38 45 47 45 46 50 51 42 42 44 48 49 52 54 52 53 53 54 53
28 26 29 21 27 29 31 30 28 28 35 38 31 32 30 29 34 33 37 39 45 46 48 47 42 43 47 49 49 48 47 48 49 49 45 46 47 53 55 56 54 53 52 52 52
26 25 30 28 30 30 30 27 27 28 30 31 30 32 34 30 29 27 30 36 37 42 42 44 41 44 36 48 50 47 48 50 53 50 50 50 47 57 55 54 51 51 51 51 52
33 33 30 28 28 28 27 26 27 30 34 36 33 31 32 33 37 37 37 36 37 35 37 40 38 37 37 44 44 38 48 48 48 49 52 46 52 52 50 53 53 52 53 53 53
MSLP
1020.54 1020.26 1019.95 1019.71 1019.40 1019.07 1018.89 1018.58 1018.28 1017.86 1017.43 1017.07 1016.64 1016.08 1015.65 1015.20 1014.63 1014.02 1013.25 1011.28 1011.08 1010.99 1011.09 1011.00 1010.60 1010.59 1010.85 1011.07 1011.24 1011.04 1010.86 1010.87 1011.23 1011.83 1012.14 1013.13 1013.26 1013.98 1014.26 1014.46 1014.55 1014.48 1014.58 1015.68 1017.35
1020.82 1020.55 1020.12 1019.79 1019.50 1019.21 1018.86 1018.46 1018.15 1017.70 1017.32 1016.96 1016.45 1015.81 1015.20 1014.81 1014.23 1013.02 1010.58 1010.55 1010.58 1010.71 1011.02 1010.68 1010.43 1010.37 1010.61 1010.80 1011.09 1010.78 1010.64 1010.54 1010.88 1011.21 1011.74 1012.72 1013.06 1013.53 1014.15 1014.48 1014.80 1015.18 1015.72 1016.11 1016.70
1020.99 1020.64 1020.27 1019.95 1019.60 1019.17 1018.76 1018.40 1017.99 1017.57 1017.14 1016.70 1016.11 1015.57 1014.84 1014.64 1013.83 1010.77 1009.82 1009.99 1010.35 1010.67 1010.59 1010.58 1010.39 1010.25 1010.46 1010.79 1011.08 1011.09 1010.63 1010.76 1011.10 1011.47 1011.71 1012.55 1013.27 1013.76 1013.95 1014.67 1014.80 1015.42 1016.27 1017.14 1018.02
1021.11 1020.69 1020.26 1019.90 1019.47 1019.01 1018.66 1018.32 1017.78 1017.31 1016.86 1016.38 1015.77 1015.32 1014.64 1014.53 1012.71 1009.92 1009.36 1009.48 1010.05 1010.58 1010.59 1010.59 1010.48 1010.31 1010.38 1010.48 1010.97 1011.21 1011.19 1011.14 1011.48 1011.92 1012.34 1012.87 1013.61 1014.09 1014.54 1015.21 1015.25 1016.36 1017.34 1018.04 1018.71
1021.15 1020.74 1020.26 1019.87 1019.39 1018.97 1018.50 1018.01 1017.47 1017.05 1016.61 1016.05 1015.73 1015.31 1014.76 1013.96 1011.56 1009.92 1009.56 1009.69 1010.14 1010.49 1010.43 1010.41 1010.36 1010.30 1010.22 1010.45 1010.90 1011.36 1011.75 1011.88 1012.18 1012.50 1013.10 1013.61 1014.21 1014.84 1015.79 1015.72 1015.89 1017.06 1017.79 1018.75 1018.99
1021.22 1020.64 1020.13 1019.62 1019.15 1018.69 1018.15 1017.64 1017.16 1016.65 1016.15 1015.69 1015.50 1015.28 1015.05 1013.20 1010.15 1010.00 1009.93 1010.04 1010.13 1010.38 1010.52 1010.34 1010.06 1010.10 1010.37 1010.70 1010.92 1011.80 1012.34 1012.55 1012.66 1012.94 1013.63 1013.99 1015.01 1015.30 1016.70 1016.84 1017.07 1017.66 1018.50 1019.23 1019.84
1020.99 1020.54 1019.97 1019.38 1018.77 1018.28 1017.65 1017.01 1016.44 1015.86 1015.34 1014.94 1014.96 1015.10 1014.43 1011.04 1009.89 1010.12 1010.07 1010.07 1010.10 1010.21 1010.31 1010.25 1009.99 1010.05 1010.30 1010.99 1011.81 1012.03 1012.61 1013.00 1013.35 1013.39 1013.94 1014.04 1015.24 1016.09 1016.87 1017.40 1017.86 1018.50 1019.07 1019.81 1020.34
1020.98 1020.40 1019.78 1019.09 1018.44 1017.77 1016.97 1016.30 1015.59 1015.07 1014.52 1013.87 1014.08 1014.59 1012.94 1010.02 1009.94 1009.97 1009.87 1010.11 1010.02 1010.16 1010.06 1010.00 1010.09 1010.12 1010.47 1011.30 1011.81 1012.05 1012.72 1013.04 1013.70 1013.72 1014.33 1014.36 1015.32 1016.67 1017.23 1017.58 1018.17 1018.94 1019.69 1019.79 1020.51
1021.02 1020.37 1019.58 1018.85 1017.92 1017.14 1016.25 1015.20 1014.53 1014.20 1013.91 1013.82 1014.26 1014.12 1011.35 1009.54 1009.71 1009.16 1009.24 1009.50 1009.84 1009.96 1010.01 1010.06 1010.19 1010.63 1011.12 1011.11 1011.93 1012.57 1012.32 1013.22 1013.77 1014.12 1014.22 1014.41 1015.48 1016.75 1017.44 1017.93 1018.54 1019.05 1019.63 1019.90 1020.86
1020.97 1020.34 1019.60 1018.68 1017.76 1016.65 1015.37 1014.33 1013.90 1014.00 1014.17 1014.09 1013.83 1013.88 1010.74 1009.44 1009.06 1008.96 1009.11 1009.11 1009.51 1009.76 1010.10 1010.25 1010.57 1010.74 1011.10 1010.88 1010.71 1011.99 1012.55 1013.48 1013.35 1014.14 1014.44 1014.78 1015.44 1016.59 1017.44 1018.13 1018.67 1019.18 1019.65 1020.24 1020.97
1020.96 1020.22 1019.40 1018.52 1017.62 1016.47 1015.26 1014.50 1014.54 1014.52 1014.21 1013.21 1012.73 1011.90 1010.52 1009.81 1009.16 1008.80 1008.79 1008.96 1009.33 1009.67 1010.04 1010.47 1010.46 1010.16 1010.25 1010.61 1010.90 1011.48 1012.14 1012.81 1013.77 1014.06 1014.43 1014.93 1015.48 1016.44 1017.34 1018.09 1018.60 1018.98 1019.60 1020.12 1020.93
1021.29 1020.53 1019.62 1018.68 1017.61 1016.50 1015.86 1016.04 1017.07 1017.37 1015.20 1012.70 1011.86 1011.59 1010.74 1010.61 1009.66 1008.44 1008.49 1008.78 1009.17 1009.59 1010.19 1010.79 1010.02 1010.05 1010.57 1010.91 1011.03 1011.35 1011.96 1012.93 1014.12 1014.36 1014.52 1015.41 1015.79 1016.63 1017.20 1017.55 1018.13 1018.66 1019.18 1019.66 1020.69
1021.15 1020.38 1019.55 1018.56 1017.28 1017.03 1017.25 1016.95 1017.12 1016.86 1015.76 1012.02 1010.82 1010.13 1009.60 1009.96 1009.19 1008.20 1008.08 1008.17 1008.67 1009.33 1009.64 1009.80 1009.92 1010.14 1010.46 1010.83 1011.03 1011.26 1011.35 1012.54 1013.12 1014.39 1015.08 1015.26 1015.94 1016.43 1016.91 1017.39 1017.96 1018.41 1018.68 1019.20 1019.61
1020.67 1020.00 1019.37 1018.50 1017.63 1017.63 1017.10 1016.96 1016.76 1016.65 1015.29 1011.82 1010.26 1008.76 1008.81 1008.73 1008.32 1007.28 1007.36 1007.43 1008.41 1008.86 1009.67 1009.85 1009.90 1009.95 1009.95 1010.13 1010.37 1010.78 1011.04 1011.66 1012.65 1013.56 1014.09 1014.70 1014.67 1015.43 1015.72 1016.42 1017.22 1017.63 1017.98 1018.47 1019.29
1020.23 1019.56 1019.05 1018.40 1018.18 1017.90 1017.10 1016.73 1016.37 1016.26 1014.38 1010.85 1009.35 1008.24 1008.22 1008.09 1007.16 1006.80 1006.72 1007.08 1007.61 1008.19 1009.01 1008.93 1009.28 1009.59 1009.70 1009.21 1009.92 1010.05 1010.74 1011.45 1012.15 1012.83 1013.71 1014.59 1014.50 1013.97 1014.82 1015.60 1015.57 1015.94 1016.71 1017.67 1018.70
1020.02 1019.28 1018.59 1018.40 1018.33 1017.62 1017.33 1016.71 1016.29 1016.03 1013.20 1010.48 1009.17 1008.54 1008.67 1008.11 1007.19 1006.81 1006.45 1006.77 1007.52 1008.19 1008.62 1008.83 1008.94 1008.90 1008.64 1009.00 1009.25 1009.96 1010.88 1012.03 1012.79 1013.27 1013.37 1013.12 1013.35 1012.99 1013.41 1013.06 1013.46 1014.35 1015.58 1016.83 1017.93
1019.87 1019.02 1018.50 1018.39 1018.20 1017.70 1017.34 1016.74 1016.73 1015.53 1012.97 1011.75 1010.67 1009.71 1009.01 1008.13 1007.48 1006.76 1006.25 1006.39 1006.49 1007.68 1008.14 1008.63 1008.59 1008.23 1008.17 1008.60 1009.37 1009.23 1009.93 1011.63 1012.64 1013.00 1012.62 1013.06 1012.97 1011.42 1011.48 1011.86 1011.73 1012.29 1013.73 1015.55 1017.18
1019.72 1018.96 1018.68 1018.35 1017.97 1017.91 1017.49 1017.05 1016.57 1015.05 1013.72 1012.56 1011.47 1010.16 1009.21 1007.82 1007.39 1006.94 1006.56 1006.31 1006.58 1006.81 1007.52 1007.69 1008.13 1007.43 1007.20 1007.09 1007.57 1008.55 1008.54 1009.12 1010.29 1011.63 1012.41 1013.04 1011.52 1010.35 1010.25 1010.63 1011.11 1011.96 1013.26 1015.16 1016.30
1019.78 1019.43 1018.96 1018.18 1017.93 1018.02 1017.66 1016.93 1015.99 1015.17 1014.40 1013.33 1011.63 1010.48 1009.49 1008.41 1007.75 1006.98 1006.48 1006.14 1006.21 1006.32 1006.61 1007.14 1006.92 1006.53 1006.49 1006.50 1006.86 1008.19 1008.30 1008.85 1010.27 1011.97 1012.02 1011.67 1011.08 1010.40 1009.98 1010.06 1010.73 1011.64 1012.72 1014.02 1015.17
1020.47 1020.17 1019.03 1018.42 1018.04 1017.92 1017.70 1016.96 1016.05 1015.30 1014.62 1013.68 1012.83 1011.80 1010.65 1009.62 1008.60 1007.57 1006.80 1005.90 1006.07 1006.08 1005.98 1006.51 1006.60 1005.95 1006.25 1006.40 1006.63 1006.39 1007.62 1008.78 1009.47 1010.62 1011.10 1011.10 1010.64 1009.56 1009.20 1009.41 1010.39 1011.23 1011.99 1013.27 1014.59
1020.95 1020.06 1018.74 1018.33 1018.08 1017.88 1018.05 1017.43 1016.43 1015.54 1014.98 1014.33 1013.49 1012.73 1011.59 1010.79 1009.79 1008.24 1006.84 1006.20 1005.74 1006.00 1006.07 1006.23 1006.41 1006.26 1005.84 1005.04 1005.03 1006.58 1006.80 1007.81 1008.80 1009.57 1009.74 1010.27 1009.63 1008.83 1008.40 1008.74 1009.46 1010.23 1011.29 1012.55 1013.65
1021.62 1020.92 1018.98 1018.49 1018.79 1019.21 1018.85 1018.53 1017.51 1015.99 1015.23 1014.62 1013.98 1013.38 1012.64 1011.81 1010.47 1009.04 1007.89 1006.89 1006.25 1005.48 1005.73 1006.00 1006.37 1006.11 1005.19 1005.06 1005.04 1005.29 1005.64 1006.47 1007.54 1009.26 1009.54 1009.26 1008.92 1008.44 1008.77 1008.82 1009.18 1010.08 1011.21 1012.60 1013.79
1022.76 1022.21 1019.80 1019.43 1020.54 1020.36 1019.62 1018.89 1017.94 1016.99 1016.27 1015.53 1014.81 1014.04 1013.35 1012.52 1011.53 1010.01 1008.94 1007.57 1007.12 1006.30 1005.65 1005.93 1006.07 1006.11 1005.89 1005.87 1005.49 1004.82 1005.51 1005.73 1006.82 1007.95 1008.51 1008.83 1008.45 1008.48 1008.80 1009.05 1009.38 1010.17 1011.22 1012.48 1013.74
1023.37 1023.12 1022.25 1021.63 1021.75 1021.29 1020.51 1019.67 1018.62 1017.71 1017.21 1016.84 1016.04 1014.94 1014.20 1013.13 1012.16 1011.21 1010.07 1008.53 1007.92 1007.19 1006.17 1005.68 1005.78 1005.40 1004.79 1004.18 1004.80 1005.07 1005.20 1005.51 1005.91 1006.73 1007.21 1007.42 1007.76 1008.15 1008.35 1008.84 1009.62 1010.31 1011.33 1012.39 1013.47
1024.24 1024.61 1024.41 1023.45 1022.31 1021.90 1021.09 1020.52 1019.62 1018.82 1017.99 1017.21 1016.69 1016.60 1015.90 1014.56 1013.26 1012.66 1011.92 1010.49 1008.70 1008.01 1006.80 1006.54 1006.02 1005.82 1005.38 1004.78 1004.41 1004.28 1004.42 1004.84 1004.87 1005.37 1005.94 1006.64 1006.88 1006.85 1007.34 1007.97 1009.03 1010.12 1011.32 1012.21 1013.12
1024.97 1025.24 1024.62 1023.86 1023.09 1022.24 1021.70 1021.35 1020.65 1020.01 1019.22 1017.99 1017.62 1017.05 1016.21 1015.51 1015.44 1014.83 1014.09 1012.61 1011.12 1009.54 1008.49 1007.73 1006.84 1006.14 1005.73 1005.15 1004.72 1004.47 1004.27 1004.04 1004.14 1004.78 1005.17 1005.55 1006.32 1006.43 1007.38 1008.12 1009.15 1009.88 1010.74 1011.54 1012.30
1025.34 1025.44 1025.18 1024.25 1023.47 1022.76 1022.47 1022.07 1021.31 1020.80 1019.45 1018.87 1018.37 1017.37 1016.31 1015.85 1015.63 1014.82 1014.48 1013.86 1012.94 1012.34 1010.57 1008.99 1008.00 1007.01 1006.09 1005.38 1005.29 1004.84 1003.50 1004.04 1004.40 1004.63 1004.52 1005.05 1005.53 1006.11 1007.21 1007.70 1008.14 1009.02 1009.80 1010.29 1011.02
Wind_Speed
18 18 18 18 18 18 18 18 18 18 18 18 18 17 17 17 17 1 7 10 8 6 7 2 3 4 3 2 1 2 3 6 10 12 7 10 7 3 2 8 2 2 9 16 18
21 22 23 22 21 19 18 19 20 20 19 19 19 18 17 16 5 9 11 8 9 12 4 4 5 6 4 3 0 1 4 11 6 9 9 13 11 11 7 6 3 8 15 21 20
20 20 21 21 21 21 20 20 20 21 21 20 19 19 17 14 5 5 3 15 12 9 3 2 4 4 4 2 3 3 3 5 6 6 15 14 9 4 14 7 5 14 16 16 14
20 21 21 22 21 22 21 21 22 22 22 21 19 19 18 2 3 2 8 14 12 7 5 4 3 6 4 7 3 3 1 4 6 7 10 14 11 9 9 1 10 15 16 15 14
20 20 20 21 23 23 24 24 24 23 22 21 18 16 7 1 10 4 7 11 8 6 6 5 5 5 5 6 6 2 3 4 8 12 10 10 7 6 5 7 19 16 15 14 12
20 21 22 22 22 23 24 24 24 24 23 20 18 11 2 5 3 5 8 5 6 4 5 5 6 4 5 4 3 4 7 7 7 12 6 12 6 3 3 13 17 17 16 14 13
20 22 22 23 23 24 25 26 26 25 25 24 15 5 3 14 3 5 4 4 5 4 5 4 3 3 6 7 6 7 8 7 6 3 6 13 5 3 9 10 15 15 15 14 13
23 22 24 25 25 26 28 28 29 26 21 12 9 5 9 3 2 2 7 3 3 3 1 2 3 4 2 10 4 6 4 9 2 1 4 6 10 7 9 13 13 14 12 15 12
23 24 24 26 25 26 29 29 26 12 5 11 7 4 10 3 3 6 6 6 5 2 1 3 2 4 5 9 6 3 8 5 7 1 4 3 6 12 11 11 12 12 11 11 10
24 24 24 25 26 28 28 23 10 1 3 3 1 2 5 1 2 3 5 6 4 6 3 3 4 4 4 8 14 7 7 3 9 8 4 5 6 14 13 13 13 12 12 11 9
26 26 26 26 27 26 13 5 4 2 2 6 2 5 4 10 4 5 5 8 4 4 6 2 6 13 18 12 8 11 12 13 3 6 8 7 7 16 14 14 15 13 12 11 10
23 24 25 26 28 15 5 6 5 5 11 13 17 16 14 6 5 4 11 9 6 7 7 4 13 12 6 8 11 13 14 9 4 8 5 4 4 12 13 14 16 15 14 14 13
22 23 24 27 21 4 4 5 6 7 5 10 7 7 8 11 7 6 13 7 8 9 12 9 2 12 9 9 10 9 15 12 9 8 4 10 3 9 13 9 13 15 14 16 18
25 24 24 26 5 6 4 7 9 3 3 7 4 7 6 10 7 10 10 11 5 14 11 8 4 12 14 13 12 11 13 16 18 16 8 9 8 9 17 17 14 17 18 18 17
27 26 25 19 5 4 5 12 11 3 4 1 2 0 5 9 6 9 7 4 10 8 9 10 14 12 11 14 12 9 16 17 17 16 8 9 6 5 11 15 21 22 21 20 18
28 29 27 3 1 6 9 13 1 3 7 5 3 1 4 6 3 3 8 4 5 6 2 5 2 9 12 8 17 17 15 9 6 4 8 12 12 6 10 24 24 23 21 21 21
29 28 16 2 3 3 7 3 2 3 7 8 7 7 8 5 8 5 14 16 13 10 11 5 6 4 5 11 9 12 18 6 6 6 5 3 10 9 13 13 23 24 24 23 20
28 24 7 3 5 4 3 2 1 2 4 7 7 15 7 7 7 5 11 17 9 7 10 13 10 15 8 8 12 14 16 7 11 6 6 4 8 6 11 15 18 14 17 19 22
25 4 3 6 3 1 1 2 4 1 5 9 13 4 5 5 3 8 11 17 15 9 6 8 8 5 7 6 17 11 12 10 8 3 4 6 4 7 11 9 11 15 18 22 24
5 4 4 8 0 2 1 2 2 4 7 5 5 6 5 9 8 5 9 10 10 10 3 6 4 7 13 11 5 14 13 10 3 10 7 5 5 9 6 14 9 15 20 20 20
3 2 5 10 1 1 1 3 4 4 8 5 5 6 6 5 6 4 3 3 15 12 7 5 1 1 13 16 17 7 13 2 6 3 9 5 5 8 14 10 16 18 18 20 22
3 3 4 8 3 3 2 7 8 4 6 4 5 6 7 8 6 4 4 3 8 9 18 8 3 4 15 4 9 12 11 15 9 8 2 3 5 1 5 6 11 13 14 15 18
4 3 5 3 4 4 6 6 4 10 8 7 5 6 7 7 6 3 6 4 7 2 10 8 5 3 3 3 2 16 7 10 5 5 9 9 4 3 2 5 7 11 14 16 18
2 4 5 5 1 2 5 7 10 7 2 7 4 5 10 4 2 9 8 6 13 7 8 12 6 12 9 9 6 10 10 12 12 7 9 10 7 6 6 7 7 10 13 16 18
4 3 3 5 5 8 6 5 11 11 6 9 5 12 9 5 6 6 8 11 11 15 5 3 11 7 10 2 4 8 15 16 19 10 12 10 12 11 13 12 12 14 15 17 19
3 4 4 4 8 7 9 8 9 9 4 7 12 15 11 4 6 7 10 6 5 13 8 7 2 6 10 9 8 3 8 18 20 10 6 8 8 3 4 9 12 15 18 19 20
3 1 2 4 6 5 3 7 9 12 5 7 13 14 11 6 16 19 13 13 14 7 8 6 4 2 7 6 5 7 17 9 6 6 12 11 7 9 7 12 16 17 19 21 22
Wind_Direction
6 2 359 1 359 355 353 350 344 340 337 333 328 325 322 322 318 304 236 222 190 227 176 253 118 111 100 131 119 149 121 171 173 172 152 165 157 104 134 151 209 177 153 131 137
359 357 354 355 349 346 343 342 337 334 332 331 328 325 325 328 309 252 244 208 204 172 206 186 153 127 137 142 170 165 185 192 181 167 160 160 166 140 150 158 108 101 120 132 130
350 344 343 342 339 338 336 334 330 328 327 327 329 326 329 327 292 245 277 208 194 182 174 171 115 129 151 129 180 176 179 166 185 161 153 147 140 123 151 177 167 146 135 128 139
353 351 347 343 339 336 334 330 325 323 322 322 326 326 326 281 257 15 327 166 171 172 135 129 131 133 149 162 166 157 105 167 130 147 137 151 132 123 163 2 148 119 123 125 115
348 344 342 339 334 332 326 322 320 318 316 317 318 325 341 273 254 328 82 134 127 154 173 154 157 139 169 153 139 141 153 73 110 108 96 116 99 118 64 114 125 127 129 119 103
348 348 344 340 332 327 323 320 316 312 310 306 306 317 261 247 136 22 127 124 141 140 173 152 176 190 116 111 152 99 95 105 104 114 100 123 100 147 89 128 122 127 125 116 112
347 344 342 339 335 330 323 317 313 309 306 299 278 219 252 241 155 359 162 188 168 163 161 211 180 164 134 117 146 123 107 87 72 103 115 121 112 81 141 140 128 136 128 127 133
343 342 340 335 334 330 323 315 308 304 302 299 173 155 246 239 151 281 163 168 176 202 166 232 188 106 80 122 85 110 116 158 128 122 138 224 171 150 153 142 139 140 143 136 138
340 337 336 333 330 327 321 312 308 307 327 135 126 193 258 322 215 205 168 169 161 177 220 75 105 95 129 129 115 31 161 166 160 26 132 211 136 163 160 149 149 145 147 138 139
341 341 337 333 331 329 323 315 300 330 156 217 147 249 253 195 286 161 184 156 161 129 109 116 71 132 130 183 187 157 145 171 172 174 149 164 129 157 163 165 160 166 159 155 160
340 340 336 335 333 330 341 352 8 16 327 234 247 287 307 323 246 192 175 141 112 112 162 147 185 191 188 184 152 150 154 176 157 166 157 193 161 171 163 171 175 179 173 163 159
339 336 336 335 331 341 352 65 62 313 301 275 255 259 266 302 303 238 160 154 161 166 135 140 212 203 158 162 148 152 155 168 99 146 179 178 178 174 181 186 185 179 185 174 160
339 337 339 336 331 28 338 76 351 333 268 284 223 224 212 176 226 239 182 146 159 152 180 181 203 157 167 168 165 180 174 168 158 145 78 151 187 193 199 195 193 201 198 188 180
337 338 339 339 0 338 299 347 337 275 299 272 245 256 169 153 250 208 189 160 166 182 155 209 158 175 177 191 183 195 194 159 143 160 188 206 216 208 204 203 203 203 203 196 187
337 335 335 337 285 307 311 332 325 207 348 348 228 218 171 198 156 208 173 154 166 162 156 195 172 166 194 196 185 204 158 160 172 174 156 193 238 152 194 208 217 212 210 202 191
335 332 334 359 238 255 315 311 214 36 258 346 3 329 138 245 275 111 166 93 131 138 78 177 147 189 192 177 180 136 120 96 119 169 218 190 211 185 183 210 218 217 211 196 190
334 330 332 299 281 326 322 311 50 166 325 356 344 340 318 227 229 205 177 179 178 173 187 170 194 187 151 150 161 165 155 140 184 202 217 168 206 240 211 218 214 210 204 194 185
335 330 322 261 301 338 327 130 115 283 312 341 314 304 225 181 220 205 179 188 200 152 170 189 198 202 185 181 172 182 182 178 190 189 186 160 224 224 213 219 217 217 198 183 183
340 333 334 323 318 118 291 171 211 244 350 319 320 336 348 336 313 183 205 202 195 181 154 171 231 184 179 161 157 180 205 159 104 52 164 200 252 271 233 226 200 189 172 184 186
339 330 335 336 260 275 38 236 283 351 335 325 330 347 325 338 343 210 177 197 204 196 150 191 209 198 181 172 202 199 145 177 152 168 205 191 239 234 215 217 195 188 190 190 188
23 8 324 344 284 3 102 286 305 315 5 330 330 315 314 342 302 277 218 224 193 189 200 145 192 64 150 203 179 160 190 108 131 166 204 179 228 216 223 208 200 205 197 186 185
6 38 317 332 51 2 7 322 304 307 340 300 258 277 290 333 303 307 315 283 344 189 198 185 163 190 206 206 194 201 193 185 188 186 171 183 231 208 240 229 202 197 189 185 184
8 297 320 8 56 350 328 340 318 1 356 348 308 348 311 301 299 294 310 303 2 276 193 175 190 171 154 188 194 201 187 183 113 130 190 190 226 172 223 215 205 182 171 170 170
38 13 332 26 53 352 1 4 355 345 54 348 326 355 343 309 311 309 312 315 337 356 278 182 170 208 216 218 141 188 182 185 180 187 167 210 198 208 202 195 170 166 164 165 172
27 49 6 342 344 343 1 8 2 3 340 352 25 2 332 290 311 354 351 325 324 359 14 110 215 206 222 162 172 169 176 178 195 183 194 183 198 194 195 193 174 160 161 166 172
62 10 339 299 312 345 14 21 5 349 300 334 349 338 327 283 42 319 340 335 337 341 346 357 251 177 210 219 218 213 198 195 200 185 176 162 199 219 120 126 158 169 168 176 182
1 5 342 304 340 349 25 338 320 335 293 331 322 315 324 1 316 288 258 259 269 299 320 342 8 69 214 170 145 247 224 190 197 198 172 198 184 161 169 185 180 178 183 185 186